When you browse on this site, cookies collect data to enhance your experience and personalize the content and advertising you see.
Visit our Privacy Policy to learn more. By continuing to use the site, you agree to this use of cookies and data.
  • en Suisse
  • Liste des pays
  • À 7 jours
  • Température de l'eau
  • Carte météo
  • Widgets météo
  • user-avatar
    Se connecter

    Météo par heure à Swansea

    Ce jour, 3 Avril, Vendredi

    Heure Température Précipitation Vent Pression Humidité
    00:00 +5°C° 0.1 mm 3 m/s 761 mmHg 95%
    01:00 +4°C° 0.1 mm 3 m/s 761 mmHg 95%
    02:00 +4°C° 0.1 mm 3 m/s 761 mmHg 94%
    03:00 +4°C° 0.1 mm 3 m/s 761 mmHg 93%
    04:00 +4°C° 0 mm 2 m/s 761 mmHg 93%
    05:00 +4°C° 0 mm 2 m/s 761 mmHg 93%
    06:00 +3°C° 0 mm 2 m/s 761 mmHg 92%
    07:00 +5°C° 0 mm 2 m/s 761 mmHg 86%
    08:00 +7°C° 0 mm 2 m/s 762 mmHg 80%
    09:00 +8°C° 0 mm 2 m/s 762 mmHg 73%
    10:00 +9°C° 0 mm 3 m/s 762 mmHg 72%
    11:00 +9°C° 0 mm 3 m/s 762 mmHg 70%
    12:00 +10°C° 0 mm 4 m/s 762 mmHg 68%
    13:00 +10°C° 0 mm 4 m/s 762 mmHg 70%
    14:00 +10°C° 0 mm 4 m/s 762 mmHg 71%
    15:00 +10°C° 0 mm 4 m/s 762 mmHg 73%
    16:00 +9°C° 0 mm 3 m/s 762 mmHg 76%
    17:00 +9°C° 0 mm 3 m/s 762 mmHg 80%
    18:00 +8°C° 0 mm 2 m/s 762 mmHg 83%
    19:00 +8°C° 0 mm 1 m/s 762 mmHg 85%
    20:00 +7°C° 0 mm 1 m/s 762 mmHg 87%
    21:00 +5°C° 0 mm 1 m/s 762 mmHg 89%
    22:00 +5°C° 0 mm 1 m/s 762 mmHg 89%
    23:00 +5°C° 0 mm 1 m/s 762 mmHg 88%

    Demain, 4 Avril, Samedi

    Heure Température Précipitation Vent Pression Humidité
    00:00 +4°C° 0 mm 2 m/s 763 mmHg 88%
    01:00 +4°C° 0 mm 2 m/s 763 mmHg 88%
    02:00 +3°C° 0 mm 3 m/s 762 mmHg 87%
    03:00 +3°C° 0 mm 3 m/s 762 mmHg 87%
    04:00 +3°C° 0 mm 3 m/s 762 mmHg 88%
    05:00 +3°C° 0 mm 3 m/s 762 mmHg 88%
    06:00 +3°C° 0 mm 4 m/s 762 mmHg 88%
    07:00 +4°C° 0 mm 4 m/s 762 mmHg 86%
    08:00 +6°C° 0 mm 5 m/s 762 mmHg 84%
    09:00 +8°C° 0 mm 6 m/s 761 mmHg 83%
    10:00 +9°C° 0 mm 6 m/s 761 mmHg 79%
    11:00 +10°C° 0 mm 6 m/s 761 mmHg 75%
    12:00 +11°C° 0 mm 7 m/s 761 mmHg 71%
    13:00 +11°C° 0 mm 7 m/s 761 mmHg 72%
    14:00 +11°C° 0 mm 7 m/s 760 mmHg 72%
    15:00 +11°C° 0 mm 7 m/s 760 mmHg 73%
    16:00 +11°C° 0 mm 7 m/s 760 mmHg 75%
    17:00 +10°C° 0 mm 7 m/s 759 mmHg 77%
    18:00 +9°C° 0 mm 6 m/s 759 mmHg 79%
    19:00 +8°C° 0 mm 6 m/s 759 mmHg 82%
    20:00 +8°C° 0 mm 6 m/s 759 mmHg 86%
    21:00 +7°C° 0 mm 6 m/s 759 mmHg 89%
    22:00 +7°C° 0 mm 6 m/s 759 mmHg 90%
    23:00 +5°C° 0 mm 7 m/s 759 mmHg 91%

    Après-demain, 5 Avril, Dimanche

    Heure Température Précipitation Vent Pression Humidité
    00:00 +5°C° 0 mm 7 m/s 758 mmHg 92%
    01:00 +6°C° 0 mm 7 m/s 758 mmHg 92%
    02:00 +6°C° 0 mm 7 m/s 757 mmHg 91%
    03:00 +6°C° 0 mm 7 m/s 756 mmHg 91%
    04:00 +6°C° 0 mm 7 m/s 756 mmHg 91%
    05:00 +6°C° 0 mm 7 m/s 755 mmHg 92%
    06:00 +6°C° 0 mm 7 m/s 755 mmHg 92%
    07:00 +7°C° 0 mm 8 m/s 754 mmHg 89%
    08:00 +9°C° 0 mm 8 m/s 754 mmHg 87%
    09:00 +10°C° 0 mm 8 m/s 754 mmHg 84%
    10:00 +11°C° 0 mm 8 m/s 754 mmHg 82%
    11:00 +12°C° 0 mm 8 m/s 753 mmHg 81%
    12:00 +13°C° 0 mm 8 m/s 753 mmHg 79%
    13:00 +13°C° 0.2 mm 8 m/s 753 mmHg 81%
    14:00 +13°C° 0.2 mm 9 m/s 752 mmHg 83%
    15:00 +13°C° 0.2 mm 9 m/s 752 mmHg 85%
    16:00 +13°C° 0.2 mm 9 m/s 752 mmHg 85%
    17:00 +12°C° 0.2 mm 9 m/s 751 mmHg 85%
    18:00 +12°C° 0.2 mm 9 m/s 751 mmHg 85%
    19:00 +11°C° 0.9 mm 8 m/s 751 mmHg 88%
    20:00 +11°C° 0.9 mm 8 m/s 751 mmHg 92%
    21:00 +10°C° 0.9 mm 7 m/s 751 mmHg 96%
    22:00 +10°C° 0.2 mm 6 m/s 751 mmHg 96%
    23:00 +10°C° 0.2 mm 6 m/s 751 mmHg 96%

    6 Avril, Lundi

    Heure Température Précipitation Vent Pression Humidité
    00:00 +10°C° 0.2 mm 6 m/s 751 mmHg 96%
    01:00 +10°C° 0.2 mm 6 m/s 751 mmHg 96%
    02:00 +10°C° 0.2 mm 6 m/s 751 mmHg 95%
    03:00 +9°C° 0.2 mm 6 m/s 751 mmHg 95%
    04:00 +9°C° 0.1 mm 6 m/s 751 mmHg 94%
    05:00 +8°C° 0.1 mm 6 m/s 752 mmHg 94%
    06:00 +6°C° 0.1 mm 7 m/s 753 mmHg 93%
    07:00 +8°C° 0.2 mm 7 m/s 753 mmHg 90%
    08:00 +9°C° 0.2 mm 7 m/s 754 mmHg 87%
    09:00 +9°C° 0.2 mm 7 m/s 755 mmHg 84%
    10:00 +10°C° 0 mm 7 m/s 756 mmHg 78%
    11:00 +10°C° 0 mm 7 m/s 757 mmHg 73%
    12:00 +10°C° 0 mm 8 m/s 758 mmHg 68%
    13:00 +10°C° 0 mm 7 m/s 759 mmHg 68%
    14:00 +10°C° 0 mm 7 m/s 759 mmHg 68%
    15:00 +10°C° 0 mm 7 m/s 760 mmHg 68%
    16:00 +9°C° 0 mm 6 m/s 761 mmHg 72%
    17:00 +9°C° 0 mm 6 m/s 762 mmHg 76%
    18:00 +8°C° 0 mm 5 m/s 763 mmHg 80%
    19:00 +7°C° 0 mm 4 m/s 764 mmHg 84%
    20:00 +7°C° 0 mm 3 m/s 765 mmHg 88%
    21:00 +5°C° 0 mm 3 m/s 766 mmHg 93%
    22:00 +5°C° 0 mm 2 m/s 767 mmHg 92%
    23:00 +5°C° 0 mm 2 m/s 768 mmHg 92%

    7 Avril, Mardi

    Heure Température Précipitation Vent Pression Humidité
    00:00 +5°C° 0 mm 2 m/s 769 mmHg 91%
    01:00 +6°C° 0 mm 1 m/s 769 mmHg 91%
    02:00 +6°C° 0 mm 1 m/s 769 mmHg 91%
    03:00 +5°C° 0 mm 1 m/s 770 mmHg 90%
    04:00 +4°C° 0 mm 2 m/s 770 mmHg 91%
    05:00 +4°C° 0 mm 2 m/s 771 mmHg 92%
    06:00 +4°C° 0 mm 2 m/s 771 mmHg 93%
    07:00 +6°C° 0 mm 2 m/s 771 mmHg 88%
    08:00 +8°C° 0 mm 3 m/s 771 mmHg 82%
    09:00 +10°C° 0 mm 3 m/s 772 mmHg 77%
    10:00 +10°C° 0 mm 3 m/s 772 mmHg 72%
    11:00 +11°C° 0 mm 4 m/s 772 mmHg 66%
    12:00 +12°C° 0 mm 4 m/s 772 mmHg 60%
    13:00 +12°C° 0 mm 4 m/s 772 mmHg 61%
    14:00 +12°C° 0 mm 4 m/s 772 mmHg 61%
    15:00 +13°C° 0 mm 4 m/s 772 mmHg 61%
    16:00 +12°C° 0 mm 4 m/s 772 mmHg 66%
    17:00 +11°C° 0 mm 4 m/s 771 mmHg 71%
    18:00 +10°C° 0 mm 4 m/s 771 mmHg 76%
    19:00 +8°C° 0 mm 4 m/s 771 mmHg 79%
    20:00 +7°C° 0 mm 5 m/s 772 mmHg 82%
    21:00 +5°C° 0 mm 5 m/s 772 mmHg 86%
    22:00 +5°C° 0 mm 5 m/s 772 mmHg 86%
    23:00 +5°C° 0 mm 5 m/s 772 mmHg 86%

    8 Avril, Mercredi

    Heure Température Précipitation Vent Pression Humidité
    00:00 +4°C° 0 mm 6 m/s 772 mmHg 87%
    01:00 +3°C° 0 mm 6 m/s 771 mmHg 87%
    02:00 +3°C° 0 mm 5 m/s 771 mmHg 87%
    03:00 +3°C° 0 mm 5 m/s 770 mmHg 88%
    04:00 +3°C° 0 mm 5 m/s 770 mmHg 88%
    05:00 +3°C° 0 mm 5 m/s 770 mmHg 89%
    06:00 +5°C° 0 mm 5 m/s 769 mmHg 90%
    07:00 +7°C° 0 mm 6 m/s 769 mmHg 87%
    08:00 +9°C° 0 mm 7 m/s 769 mmHg 83%
    09:00 +11°C° 0 mm 7 m/s 768 mmHg 79%
    10:00 +12°C° 0 mm 7 m/s 768 mmHg 77%
    11:00 +13°C° 0 mm 8 m/s 768 mmHg 74%
    12:00 +15°C° 0 mm 8 m/s 768 mmHg 72%
    13:00 +15°C° 0 mm 8 m/s 767 mmHg 72%
    14:00 +15°C° 0 mm 7 m/s 767 mmHg 71%
    15:00 +15°C° 0 mm 7 m/s 767 mmHg 71%
    16:00 +14°C° 0 mm 7 m/s 766 mmHg 75%
    17:00 +13°C° 0 mm 6 m/s 766 mmHg 78%
    18:00 +13°C° 0 mm 6 m/s 766 mmHg 81%
    19:00 +11°C° 0 mm 6 m/s 766 mmHg 84%
    20:00 +10°C° 0 mm 6 m/s 766 mmHg 87%
    21:00 +9°C° 0 mm 6 m/s 766 mmHg 90%
    22:00 +9°C° 0 mm 6 m/s 765 mmHg 89%
    23:00 +8°C° 0 mm 6 m/s 765 mmHg 89%
    Voir plus